Wind_Speed
7 8 4 2 3 3 2 5 7 12 9 11 30 20 20 21 8 15 32 25 24 21 21 19 17 16 15 14 13 12 10 11 11 12 12 11 11 12 12 12 13 15 17 17 18 17 18 18 22
8 4 3 3 3 3 2 13 13 10 14 23 28 26 21 24 37 36 33 27 25 22 19 19 17 16 15 14 13 12 12 12 12 12 12 13 12 12 12 13 13 15 16 17 19 17 17 19 24
10 4 3 3 1 2 7 11 11 18 18 23 22 22 20 33 33 29 34 28 23 23 18 17 16 14 14 13 12 12 11 12 12 12 12 13 12 13 13 14 14 15 16 18 19 19 19 22 25
2 6 4 3 9 15 12 13 13 20 19 20 16 14 29 23 31 34 32 27 29 20 15 16 15 14 12 12 12 11 11 12 12 12 13 13 13 13 14 15 15 16 17 18 19 19 19 21 25
9 4 3 5 10 15 15 21 20 16 21 10 26 26 25 27 30 30 30 29 24 19 14 16 13 13 13 11 10 10 10 11 12 12 12 12 13 13 14 15 16 16 15 16 15 16 18 20 21
2 5 1 2 7 18 18 20 5 21 25 22 32 30 26 28 28 32 29 25 21 21 17 16 15 14 12 11 11 10 10 11 11 12 12 12 13 13 14 15 17 16 16 16 15 16 16 18 17
11 7 4 8 11 14 11 20 8 15 26 21 24 23 28 27 25 30 27 20 25 21 16 16 15 12 12 11 11 10 10 11 11 12 12 12 13 13 15 17 16 15 13 16 17 18 16 16 18
9 4 4 2 9 5 8 10 9 17 4 12 24 19 27 29 25 29 26 22 24 19 19 15 12 15 10 12 11 11 11 12 14 15 16 16 15 16 15 17 15 19 19 18 18 19 16 18 24
4 3 4 7 9 12 12 9 5 5 1 3 8 31 32 29 27 28 26 20 20 16 21 19 17 14 7 13 14 13 14 15 17 14 12 15 15 13 16 15 15 17 19 16 15 19 24 23 20
3 3 10 11 14 15 17 14 11 5 7 10 33 33 31 28 28 30 22 21 18 19 20 19 13 14 19 13 18 14 20 16 10 9 20 16 13 8 13 16 18 19 19 14 12 18 16 16 18
9 3 7 17 18 20 18 15 8 15 6 26 35 36 31 27 25 26 22 22 18 22 19 18 15 17 17 8 16 17 17 16 9 9 13 10 13 17 16 16 14 18 21 12 10 13 15 13 6
5 19 5 15 21 18 16 18 11 6 3 24 31 32 30 26 24 25 26 24 28 14 22 13 16 14 10 14 12 17 18 8 15 12 16 13 10 16 11 14 7 4 10 3 3 13 16 15 14
2 3 17 13 20 18 17 17 13 13 7 13 30 30 28 24 22 22 24 24 21 23 16 18 13 17 13 10 19 12 15 10 13 10 9 14 10 11 14 14 9 2 7 12 16 13 13 14 10
5 18 11 19 21 20 17 18 15 15 14 19 29 29 27 24 23 21 24 24 18 20 22 16 12 15 12 12 14 14 15 10 13 8 9 8 10 11 12 10 5 8 11 6 11 11 16 11 11
31 22 10 9 26 16 26 11 13 15 14 22 29 28 25 23 23 20 23 20 17 18 19 17 10 15 7 16 17 11 13 14 11 10 6 7 8 12 13 9 6 9 8 8 15 11 8 14 9
13 12 6 10 20 21 13 10 15 14 19 24 29 28 26 23 23 21 18 18 18 18 17 15 14 13 7 19 15 9 16 14 7 8 11 9 9 9 6 9 10 9 4 6 8 7 12 8 15
12 13 16 14 19 24 8 17 17 13 20 27 29 28 26 22 22 18 19 19 20 17 17 16 16 15 12 13 9 10 7 13 11 10 5 4 5 7 8 7 9 9 6 8 8 10 7 4 5
17 20 13 12 17 21 11 17 19 22 26 24 24 25 24 23 22 20 19 19 19 21 17 16 15 18 13 14 12 11 7 9 9 8 9 5 2 4 5 6 5 15 6 7 8 7 12 7 2
19 18 16 2 13 14 18 22 18 24 22 22 20 19 22 22 22 21 20 20 20 19 19 18 18 18 15 14 12 14 11 11 8 7 7 7 3 7 8 4 7 5 5 8 7 7 2 5 4
23 16 18 13 8 10 21 17 21 24 23 23 22 23 18 23 23 23 23 22 22 21 21 21 18 20 18 14 13 8 11 10 8 7 7 6 4 5 2 9 6 9 6 7 9 3 4 2 6
22 18 16 7 8 11 13 15 20 20 25 30 24 23 24 24 22 25 23 24 23 23 23 23 21 19 22 15 12 11 17 12 8 8 8 7 5 4 6 6 9 7 8 4 7 6 2 6 3
19 12 13 12 16 13 24 9 19 22 17 21 25 23 26 26 19 28 25 22 24 26 23 23 23 20 25 21 16 9 7 9 10 9 12 8 6 6 4 7 7 7 6 10 6 2 8 5 3
16 17 24 25 15 15 17 8 3 13 17 17 24 24 29 30 21 30 28 28 23 27 24 25 25 22 22 24 20 16 13 11 16 14 8 10 8 9 8 7 8 6 7 9 9 9 8 4 4
22 14 13 15 10 13 13 11 13 6 9 16 22 21 26 26 27 30 30 31 25 27 27 25 24 24 22 24 22 18 10 9 3 15 12 9 7 8 12 11 9 9 9 7 10 8 10 5 5
20 13 10 10 10 12 20 15 9 16 6 33 22 26 23 23 24 32 34 33 32 31 31 26 23 22 23 20 21 16 14 9 12 11 10 14 11 9 8 3 7 10 9 6 10 9 12 12 8
16 19 12 16 13 13 16 10 10 14 32 6 16 10 8 25 28 32 36 37 35 31 35 30 24 22 22 20 19 18 16 13 11 11 10 13 3 16 13 7 5 8 7 10 10 7 11 5 10
16 17 17 16 18 15 9 19 20 17 13 11 10 12 11 34 44 34 35 38 35 33 35 35 25 23 23 23 21 19 16 12 10 10 12 11 7 2 7 5 5 7 7 6 7 10 7 9 8
16 12 17 15 15 14 14 19 17 18 11 6 8 14 16 22 16 14 10 25 34 34 31 29 31 24 22 22 22 22 19 16 17 13 11 10 6 12 14 12 10 7 8 9 9 8 6 8 10
10 12 14 17 14 11 7 6 18 19 13 9 10 12 11 18 24 18 11 10 21 18 34 20 10 25 23 22 23 20 19 18 20 22 20 18 15 7 8 9 15 11 8 10 8 10 9 13 8
21 14 16 12 17 6 6 3 6 16 16 14 13 16 17 21 24 21 17 17 16 12 14 26 26 17 23 22 24 24 21 18 17 19 20 15 17 21 17 9 9 13 12 13 12 8 9 9 8
Wind_Direction
153 123 50 308 248 219 238 124 134 123 144 101 71 79 69 44 88 111 139 138 137 136 139 135 129 121 112 106 99 97 90 81 78 79 81 90 100 102 97 102 101 100 100 99 98 95 97 95 96
155 209 213 265 238 212 103 107 120 157 124 88 68 68 67 84 107 122 129 135 135 131 132 130 128 120 113 107 102 104 101 94 89 88 88 89 101 100 105 106 107 106 105 105 101 95 97 96 99
178 217 234 269 227 208 125 133 127 113 118 94 85 64 92 114 119 122 130 131 129 130 141 130 127 117 109 105 105 99 99 93 87 89 91 94 98 104 111 111 117 114 113 111 102 91 94 100 106
198 205 197 225 237 106 135 141 128 108 89 87 103 82 109 113 121 127 131 132 130 129 155 128 124 122 115 109 103 103 99 94 96 94 94 96 98 110 114 116 117 120 121 117 106 93 87 106 109
204 263 224 249 128 119 68 130 120 116 96 67 102 117 115 116 125 134 130 133 129 129 135 131 129 123 117 108 103 109 106 99 97 95 96 99 101 108 117 116 119 119 121 123 102 94 92 106 110
246 260 112 163 78 101 68 30 43 98 98 104 118 115 113 127 135 137 133 139 130 128 132 129 125 121 114 110 112 109 105 99 97 97 97 102 102 110 122 120 123 122 123 111 99 89 80 92 103
241 277 274 147 123 94 95 79 18 112 115 122 125 120 129 141 140 133 138 125 133 129 137 124 122 119 119 113 110 111 104 103 98 93 91 96 103 113 122 125 124 124 112 109 88 73 70 90 96
219 275 309 163 149 94 112 95 66 33 47 117 128 141 143 143 146 135 135 141 135 131 124 130 101 87 95 115 109 104 99 101 100 103 106 99 97 106 117 124 123 119 110 108 88 74 81 90 98
220 273 3 30 146 132 130 117 115 78 40 261 169 147 143 147 144 138 132 131 133 126 128 140 130 122 111 107 102 98 105 102 100 109 112 96 75 100 114 125 112 116 101 99 110 98 105 107 96
188 264 42 71 117 133 119 104 106 119 257 150 129 138 145 150 148 132 138 130 144 132 127 122 121 131 113 99 87 101 104 105 103 103 89 90 122 87 120 119 119 118 115 113 99 90 106 105 102
147 275 96 109 116 131 133 132 140 152 195 141 137 143 152 153 156 142 146 152 150 139 134 136 115 128 138 104 107 101 97 105 108 97 105 107 104 100 107 103 104 126 122 130 108 86 77 65 124
117 230 140 112 135 134 146 145 142 107 190 140 142 147 152 159 157 149 155 151 139 128 130 134 125 135 156 102 161 102 111 139 135 102 108 121 111 126 121 143 185 176 142 104 147 91 82 80 89
300 232 215 131 115 127 133 151 134 120 142 137 146 153 155 158 158 153 147 147 138 134 135 133 136 130 142 113 115 121 140 111 102 129 122 111 122 106 97 164 128 125 101 92 83 132 111 91 98
106 260 251 151 146 125 135 142 135 137 144 154 155 160 159 159 159 147 145 140 136 147 135 145 165 147 160 136 123 119 127 131 112 114 106 118 127 124 143 125 145 101 112 91 113 96 110 110 105
186 225 207 186 130 127 126 146 126 137 153 171 163 164 163 164 151 157 144 138 149 145 141 139 144 147 128 151 130 121 142 136 157 152 129 154 139 142 119 112 112 67 80 70 86 83 134 97 102
214 227 203 181 142 153 159 125 137 141 149 158 160 165 165 166 155 165 149 149 160 156 151 148 152 150 140 144 132 124 140 140 136 139 148 151 157 138 119 143 129 127 124 103 77 83 110 92 90
208 226 186 186 142 158 136 135 150 155 160 159 167 166 166 166 155 168 156 160 157 159 160 159 161 150 163 150 148 126 153 147 150 165 171 190 171 188 153 146 119 143 128 134 139 120 105 102 156
205 227 181 162 285 108 133 133 152 165 167 168 171 169 167 168 164 171 163 166 159 165 165 163 163 169 169 159 152 159 160 173 167 164 169 203 176 134 178 150 137 138 85 105 121 103 108 102 16
217 218 180 11 131 158 143 140 156 156 164 166 176 172 166 169 171 170 171 172 166 164 172 170 177 178 175 168 169 161 156 171 173 205 148 185 209 155 157 160 174 121 122 123 102 101 75 105 305
255 258 127 155 93 40 137 160 163 159 172 184 194 178 176 174 180 171 176 177 174 171 177 178 187 188 168 166 190 170 188 176 170 208 173 205 194 190 121 123 151 167 128 140 176 157 116 55 11
238 242 167 168 109 238 148 195 160 181 177 177 190 186 186 193 195 172 184 178 177 179 182 187 193 200 166 175 196 173 194 191 196 217 191 188 193 152 150 204 186 176 173 163 165 147 331 125 29
226 235 122 131 183 176 187 144 179 168 182 169 182 191 189 196 212 175 181 179 186 185 188 194 191 206 177 178 188 190 196 146 182 193 185 191 178 169 160 186 137 192 174 165 145 176 123 92 75
234 168 181 209 213 215 197 112 133 29 173 162 175 184 196 202 212 183 179 183 192 181 188 199 194 205 189 184 188 185 205 183 197 193 199 179 185 205 176 164 198 199 168 172 188 166 188 155 91
239 269 160 244 220 231 205 277 157 170 259 180 174 194 194 197 202 185 189 188 188 184 183 198 196 198 192 195 196 189 192 180 180 169 176 203 215 186 170 201 197 190 167 183 188 187 187 198 159
228 238 199 210 220 239 192 204 107 106 266 256 179 183 192 203 202 194 188 190 189 187 181 192 202 195 192 198 203 197 196 180 180 182 171 198 202 218 182 182 221 197 186 180 185 196 192 206 211
216 231 211 205 220 230 249 145 172 163 151 294 122 165 183 269 219 202 196 193 197 189 182 188 204 205 200 203 202 206 209 207 200 192 203 205 223 209 212 220 216 203 210 196 210 202 208 243 220
200 240 251 222 228 230 113 109 152 138 100 91 93 61 158 221 229 202 202 193 196 194 189 187 199 210 210 211 212 215 216 200 185 210 199 208 229 236 165 191 233 203 233 221 224 195 192 223 222
273 230 239 247 264 253 137 158 152 144 121 102 72 51 20 33 62 191 193 212 196 200 183 185 200 210 219 211 214 216 219 208 200 200 213 196 230 217 230 231 206 222 214 243 242 202 218 225 240
219 247 250 262 256 235 171 59 133 120 127 125 97 76 47 53 50 87 177 121 162 193 181 213 226 204 221 210 216 211 220 217 202 206 216 206 199 212 208 232 219 208 215 241 248 217 235 219 226
247 239 234 240 249 77 98 329 9 115 117 108 99 81 67 62 67 65 79 113 159 156 185 224 263 175 206 213 209 211 217 210 224 213 215 216 212 222 225 238 233 216 227 243 257 235 225 250 256
Height
1508 1508 1509 1511 1516 1510 1504 1496 1484 1489 1484 1480 1482 1488 1499 1501 1502 1529 1535 1542 1545 1548 1550 1553 1555 1557 1559 1560 1561 1562 1563 1563 1564 1565 1565 1565 1565 1566 1567 1567 1568 1569 1569 1569 1571 1572 1573 1574 1575
1507 1511 1514 1511 1512 1509 1507 1489 1490 1486 1482 1484 1490 1496 1503 1511 1512 1526 1536 1544 1548 1549 1553 1555 1557 1560 1562 1563 1564 1565 1565 1566 1567 1567 1568 1568 1568 1568 1568 1569 1570 1572 1572 1573 1574 1575 1576 1577 1578
1507 1511 1506 1510 1499 1500 1500 1486 1486 1485 1488 1489 1499 1507 1508 1518 1524 1528 1539 1545 1550 1554 1556 1557 1560 1562 1563 1565 1566 1567 1568 1568 1569 1569 1569 1569 1570 1570 1571 1572 1573 1574 1575 1576 1577 1578 1579 1579 1581
1508 1509 1511 1512 1502 1479 1487 1486 1486 1487 1493 1498 1501 1513 1519 1523 1527 1533 1541 1547 1551 1555 1557 1559 1561 1563 1565 1566 1568 1569 1570 1570 1571 1571 1571 1571 1571 1572 1573 1574 1575 1577 1578 1579 1580 1581 1582 1583 1583
1507 1507 1504 1491 1486 1479 1483 1486 1488 1490 1498 1504 1507 1514 1522 1527 1532 1537 1542 1547 1551 1556 1558 1560 1563 1564 1566 1568 1569 1571 1571 1572 1572 1573 1573 1573 1573 1574 1576 1577 1577 1578 1580 1582 1583 1583 1585 1585 1586
1508 1506 1492 1503 1491 1484 1493 1496 1495 1496 1504 1508 1512 1517 1526 1532 1536 1539 1544 1549 1552 1557 1560 1562 1564 1566 1568 1569 1571 1572 1572 1573 1574 1574 1574 1575 1575 1576 1577 1578 1580 1581 1583 1585 1586 1586 1586 1587 1590
1505 1503 1501 1489 1492 1491 1498 1503 1501 1502 1506 1513 1516 1521 1529 1535 1538 1541 1546 1551 1555 1558 1561 1563 1566 1568 1569 1571 1572 1573 1574 1574 1575 1576 1576 1576 1576 1578 1579 1581 1583 1584 1586 1588 1589 1588 1588 1590 1592
1501 1499 1492 1493 1494 1505 1503 1512 1518 1510 1514 1514 1518 1525 1528 1536 1539 1542 1548 1553 1558 1559 1563 1566 1568 1570 1571 1572 1574 1575 1575 1576 1577 1578 1578 1578 1579 1579 1581 1584 1584 1586 1588 1589 1590 1591 1593 1594 1595
1499 1501 1496 1487 1494 1503 1506 1508 1519 1518 1516 1515 1515 1524 1531 1536 1540 1545 1550 1555 1560 1561 1564 1568 1571 1572 1574 1574 1575 1576 1577 1578 1579 1579 1579 1580 1583 1584 1586 1588 1588 1590 1590 1590 1590 1593 1593 1595 1599
1497 1498 1488 1485 1489 1497 1506 1507 1510 1517 1517 1515 1518 1527 1535 1538 1541 1545 1552 1556 1560 1563 1566 1568 1571 1574 1575 1576 1576 1578 1579 1580 1581 1582 1582 1584 1589 1592 1594 1591 1588 1587 1589 1595 1596 1591 1595 1598 1599
1500 1495 1486 1490 1492 1499 1506 1513 1515 1519 1519 1517 1520 1527 1535 1539 1542 1546 1552 1557 1560 1564 1568 1572 1574 1575 1577 1578 1577 1580 1580 1582 1583 1584 1583 1590 1595 1594 1596 1600 1596 1589 1596 1593 1595 1597 1595 1597 1600
1492 1489 1484 1489 1493 1497 1504 1512 1516 1520 1519 1519 1525 1531 1536 1539 1542 1546 1551 1555 1558 1563 1570 1573 1575 1577 1578 1579 1578 1581 1582 1584 1585 1586 1588 1592 1596 1597 1597 1601 1593 1593 1603 1608 1612 1602 1596 1598 1602
1488 1486 1486 1486 1492 1500 1504 1510 1516 1521 1519 1521 1527 1533 1537 1540 1544 1547 1552 1557 1560 1564 1570 1574 1575 1578 1579 1580 1582 1585 1585 1585 1586 1587 1589 1593 1599 1599 1601 1596 1593 1590 1601 1592 1598 1605 1599 1602 1604
1491 1487 1481 1480 1489 1497 1504 1510 1514 1523 1524 1525 1529 1534 1537 1540 1544 1548 1553 1556 1562 1564 1569 1573 1575 1579 1579 1581 1583 1585 1585 1587 1587 1589 1590 1593 1597 1602 1602 1600 1595 1594 1608 1602 1609 1602 1601 1604 1607
1485 1484 1477 1478 1485 1496 1505 1513 1518 1521 1524 1526 1529 1534 1538 1541 1545 1551 1554 1557 1564 1568 1569 1573 1576 1579 1579 1583 1585 1586 1588 1589 1588 1590 1590 1592 1595 1599 1600 1599 1597 1597 1598 1598 1598 1600 1605 1607 1608
1477 1477 1486 1474 1479 1491 1496 1523 1519 1522 1522 1525 1529 1534 1538 1541 1546 1551 1554 1559 1565 1567 1570 1574 1577 1580 1581 1583 1585 1587 1588 1590 1589 1589 1591 1592 1594 1597 1599 1602 1602 1605 1603 1602 1603 1605 1607 1608 1609
1474 1489 1479 1478 1475 1483 1492 1514 1521 1522 1524 1525 1529 1532 1537 1542 1547 1552 1555 1560 1563 1567 1570 1574 1576 1580 1582 1585 1587 1589 1590 1591 1592 1591 1591 1592 1593 1596 1601 1603 1604 1606 1607 1607 1607 1608 1609 1609 1610
1478 1473 1476 1484 1493 1487 1496 1504 1516 1522 1522 1525 1528 1532 1536 1541 1547 1552 1555 1560 1563 1566 1570 1574 1576 1579 1582 1585 1587 1590 1592 1592 1593 1592 1592 1592 1595 1602 1602 1602 1604 1604 1605 1608 1609 1609 1610 1610 1611
1457 1458 1469 1479 1476 1480 1493 1507 1514 1518 1520 1523 1528 1532 1535 1541 1546 1551 1555 1559 1562 1566 1570 1573 1574 1577 1581 1584 1587 1589 1592 1593 1594 1593 1594 1592 1595 1600 1602 1601 1602 1603 1605 1607 1609 1610 1610 1610 1612
1457 1456 1480 1487 1481 1503 1494 1508 1509 1517 1520 1522 1525 1530 1535 1539 1543 1548 1552 1556 1561 1564 1568 1571 1573 1576 1580 1583 1587 1588 1590 1590 1592 1594 1594 1594 1593 1596 1599 1600 1600 1603 1604 1606 1607 1609 1609 1610 1612
1458 1457 1467 1474 1477 1497 1512 1510 1510 1517 1517 1522 1526 1530 1534 1536 1540 1544 1549 1553 1558 1561 1566 1570 1571 1574 1578 1582 1586 1587 1585 1588 1589 1592 1595 1594 1594 1595 1598 1597 1599 1602 1605 1606 1607 1609 1610 1611 1612
1462 1448 1459 1482 1484 1487 1471 1516 1511 1510 1514 1518 1523 1527 1531 1534 1537 1540 1546 1551 1556 1559 1564 1568 1571 1573 1577 1580 1584 1585 1586 1587 1590 1594 1595 1595 1595 1596 1597 1597 1600 1602 1604 1606 1608 1610 1611 1612 1613
1456 1446 1463 1464 1462 1460 1463 1489 1526 1524 1511 1514 1521 1525 1526 1529 1533 1536 1542 1548 1554 1556 1561 1565 1569 1572 1576 1580 1583 1585 1587 1589 1589 1592 1594 1595 1595 1596 1599 1600 1602 1604 1606 1606 1609 1610 1612 1612 1612
1449 1449 1449 1459 1452 1476 1481 1482 1515 1529 1529 1509 1514 1521 1526 1527 1530 1535 1540 1545 1549 1553 1557 1562 1566 1570 1574 1578 1582 1585 1586 1586 1589 1589 1591 1594 1595 1595 1597 1599 1601 1604 1605 1606 1608 1609 1610 1611 1613
1454 1461 1477 1487 1483 1484 1455 1472 1509 1522 1526 1530 1509 1516 1523 1528 1531 1532 1535 1538 1543 1549 1553 1558 1564 1567 1572 1575 1579 1582 1585 1588 1588 1588 1588 1592 1594 1595 1597 1599 1601 1603 1605 1606 1606 1608 1609 1610 1612
1457 1456 1467 1496 1489 1475 1447 1488 1509 1506 1509 1500 1511 1516 1519 1525 1527 1529 1529 1533 1537 1543 1548 1553 1560 1566 1570 1573 1576 1579 1582 1585 1588 1589 1590 1593 1594 1596 1599 1601 1602 1603 1605 1606 1606 1607 1609 1610 1612
1458 1463 1443 1457 1454 1464 1475 1488 1491 1498 1505 1512 1514 1518 1525 1522 1520 1522 1528 1529 1534 1540 1545 1548 1555 1561 1566 1571 1574 1575 1578 1580 1584 1588 1590 1591 1594 1593 1596 1599 1601 1603 1605 1606 1606 1606 1607 1609 1610
1463 1455 1470 1456 1484 1483 1483 1493 1494 1495 1505 1512 1514 1516 1521 1520 1515 1519 1523 1524 1536 1537 1541 1551 1552 1558 1563 1567 1571 1573 1575 1577 1581 1584 1587 1590 1592 1592 1595 1597 1599 1602 1603 1606 1606 1607 1607 1608 1610
1468 1467 1459 1452 1452 1472 1500 1501 1479 1494 1510 1517 1519 1521 1525 1524 1521 1519 1519 1520 1530 1538 1536 1539 1550 1554 1561 1564 1567 1569 1572 1574 1578 1581 1584 1586 1590 1590 1592 1595 1597 1598 1602 1605 1606 1606 1605 1606 1608
1456 1458 1458 1470 1469 1468 1509 1527 1500 1505 1516 1522 1526 1523 1524 1525 1525 1525 1526 1522 1528 1534 1545 1546 1552 1548 1560 1562 1564 1564 1568 1572 1574 1577 1579 1582 1586 1587 1590 1591 1593 1596 1600 1603 1604 1604 1605 1604 1606